Location: Burera
(21.3780°N, 81.9534°E)
Time: 10:45:44
(UTC+00:00)

TSX-5 - Pass Details

Date: 13 August 2020
Orbit: 401 x 1330 km, 68.9° (Epoch: 21 September)

Event Time Altitude Azimuth Distance (km) Brightness Sun altitude
Exits shadow 22:51:32 49° 293° (WNW) 545 3.5 -18.1°
Drops below altitude 10° 22:54:31 10° 7° (N) 1,452 6.4 -17.5°
Sets 22:56:32 0° 13° (NNE) 2,312 7.5 -17.0°
